EW4164 Weather Reports


time (UTC)temp
C
wind
direction
speed
KPH
gust
KPH
rain 1hr
cm
rain 24hr
cm
rain mn
cm
humidity
%
barometer
mb
20260509045017 10 8 4.8 12.9 0.00 0.00 0.00 82 1018.6
20260509044545 -17 0.0 0.0 0.00 0.00 0.00 1018.0
20260509044015 10 8 4.8 11.3 0.00 0.00 0.00 82 1018.6
20260509043017 10 7 3.2 8.0 0.00 0.00 0.00 82 1018.4
20260509043001 -17 0.0 0.0 0.00 0.00 0.00 1017.8
20260509042016 10 6 4.8 11.3 0.00 0.00 0.00 81 1018.4
20260509041514 -17 0.0 0.0 0.00 0.00 0.00 1017.6
20260509041016 10 9 3.2 6.4 0.00 0.00 0.00 81 1018.3
20260509040027 -17 0.0 0.0 0.00 0.00 0.00 1017.6
20260509040016 10 9 3.2 6.4 0.00 0.00 0.00 80 1018.3
20260509035016 10 8 3.2 6.4 0.00 0.00 0.00 79 1018.3
20260509034521 -17 0.0 0.0 0.00 0.00 0.00 1017.6
20260509034017 10 5 3.2 6.4 0.00 0.00 0.00 79 1018.3
20260509033110 -17 0.0 0.0 0.00 0.00 0.00 1017.6
20260509033016 10 7 3.2 4.8 0.00 0.00 0.00 79 1018.3
20260509032016 10 12 1.6 4.8 0.00 0.00 0.00 78 1018.3
20260509031617 -17 0.0 0.0 0.00 0.00 0.00 1017.6
20260509031016 11 5 3.2 6.4 0.00 0.00 0.00 78 1018.4
20260509030107 -17 0.0 0.0 0.00 0.00 0.00 1017.8
20260509030015 11 15 1.6 4.8 0.00 0.00 0.00 77 1018.4
20260509025016 11 6 1.6 4.8 0.00 0.00 0.00 77 1018.4
20260509024524 -17 0.0 0.0 0.00 0.00 0.00 1017.8
20260509024016 11 12 3.2 6.4 0.00 0.00 0.00 76 1018.4
20260509023049 -17 0.0 0.0 0.00 0.00 0.00 1017.7
20260509023016 11 11 3.2 8.0 0.00 0.00 0.00 76 1018.3
20260509022016 11 11 3.2 6.4 0.00 0.00 0.00 76 1018.3
20260509021559 -17 0.0 0.0 0.00 0.00 0.00 1017.6
20260509021036 11 8 3.2 11.3 0.00 0.00 0.00 76 1018.3
20260509020113 -17 0.0 0.0 0.00 0.00 0.00 1017.6
20260509020016 11 16 3.2 4.8 0.00 0.00 0.00 75 1018.3
20260509015016 11 359 1.6 4.8 0.00 0.00 0.00 74 1018.4
20260509014539 -17 0.0 0.0 0.00 0.00 0.00 1017.7
20260509014016 12 8 3.2 11.3 0.00 0.00 0.00 74 1018.4
20260509013107 -17 0.0 0.0 0.00 0.00 0.00 1017.8
20260509013016 12 15 3.2 6.4 0.00 0.00 0.00 73 1018.4
20260509012016 12 10 3.2 6.4 0.00 0.00 0.00 73 1018.4
20260509011523 -17 0.0 0.0 0.00 0.00 0.00 1017.8
20260509011056 12 8 3.2 11.3 0.00 0.00 0.00 72 1018.4
20260509010016 12 16 3.2 6.4 0.00 0.00 0.00 72 1018.4
20260509010007 -17 0.0 0.0 0.00 0.00 0.00 1017.8
20260509005016 12 10 3.2 8.0 0.00 0.00 0.00 72 1018.5
20260509004546 -17 0.0 0.0 0.00 0.00 0.00 1017.9
20260509004036 12 18 1.6 6.4 0.00 0.00 0.00 72 1018.5
20260509003055 -17 0.0 0.0 0.00 0.00 0.00 1017.9
20260509003016 12 9 3.2 6.4 0.00 0.00 0.00 72 1018.6
20260509002016 12 11 3.2 8.0 0.00 0.00 0.00 72 1018.5
20260509001512 -17 0.0 0.0 0.00 0.00 0.00 1017.9
20260509001016 12 7 4.8 9.7 0.00 0.00 0.00 72 1018.5
20260509000016 12 12 3.2 6.4 0.00 0.00 0.00 72 1018.6
20260509000005 -17 0.0 0.0 0.00 0.00 0.00 1017.9
20260508235036 12 3 3.2 6.4 0.00 0.00 0.00 71 1018.6
20260508234531 -17 0.0 0.0 0.00 0.00 0.00 1018.0
20260508234016 12 11 3.2 8.0 0.00 0.00 0.00 71 1018.7
20260508233021 -17 0.0 0.0 0.00 0.00 0.00 1017.9
20260508233016 13 16 3.2 6.4 0.00 0.00 0.00 70 1018.6
20260508232016 13 10 4.8 9.7 0.00 0.00 0.00 70 1018.6
20260508231530 -17 0.0 0.0 0.00 0.00 0.00 1018.0
20260508231016 13 10 3.2 8.0 0.00 0.00 0.00 70 1018.7
20260508230104 -17 0.0 0.0 0.00 0.00 0.00 1018.1
20260508230017 13 14 3.2 8.0 0.00 0.00 0.00 69 1018.8
20260508225016 13 13 4.8 8.0 0.00 0.00 0.00 69 1018.8
20260508224528 -17 0.0 0.0 0.00 0.00 0.00 1018.1
20260508224016 13 3 3.2 8.0 0.00 0.00 0.00 69 1018.8
20260508223102 -17 0.0 0.0 0.00 0.00 0.00 1018.2
20260508223016 13 18 3.2 6.4 0.00 0.00 0.00 69 1018.8
20260508222016 13 8 3.2 6.4 0.00 0.00 0.00 69 1018.8
20260508221600 -17 0.0 0.0 0.00 0.00 0.00 1018.1
20260508221016 13 16 1.6 4.8 0.00 0.00 0.00 69 1018.7
20260508220104 -17 0.0 0.0 0.00 0.00 0.00 1018.1
20260508220016 13 21 3.2 8.0 0.00 0.00 0.00 68 1018.7
20260508215016 13 13 3.2 6.4 0.00 0.00 0.00 68 1018.8
20260508214522 -17 0.0 0.0 0.00 0.00 0.00 1018.2
20260508214016 13 7 3.2 8.0 0.00 0.00 0.00 67 1018.8
20260508213048 -17 0.0 0.0 0.00 0.00 0.00 1018.1
20260508213036 13 1 3.2 8.0 0.00 0.00 0.00 67 1018.8
20260508212036 13 10 3.2 8.0 0.00 0.00 0.00 67 1018.7
20260508211502 -17 0.0 0.0 0.00 0.00 0.00 1018.0
20260508211016 13 10 3.2 8.0 0.00 0.00 0.00 66 1018.5
20260508210034 -17 0.0 0.0 0.00 0.00 0.00 1017.8
20260508210016 13 11 4.8 8.0 0.00 0.00 0.00 66 1018.5
20260508205016 14 14 4.8 14.5 0.00 0.00 0.00 66 1018.4
20260508204517 -17 0.0 0.0 0.00 0.00 0.00 1017.8
20260508204056 13 10 4.8 12.9 0.00 0.00 0.00 66 1018.4
20260508203046 -17 0.0 0.0 0.00 0.00 0.00 1017.6
20260508203016 13 9 3.2 8.0 0.00 0.00 0.00 66 1018.3
20260508202016 13 16 3.2 8.0 0.00 0.00 0.00 66 1018.3
20260508201509 -17 0.0 0.0 0.00 0.00 0.00 1017.6
20260508201016 14 15 1.6 4.8 0.00 0.00 0.00 66 1018.3
20260508200025 -17 0.0 0.0 0.00 0.00 0.00 1017.5
20260508200016 14 14 3.2 8.0 0.00 0.00 0.00 65 1018.2
20260508195016 14 10 3.2 8.0 0.00 0.00 0.00 65 1018.1
20260508194535 -17 0.0 0.0 0.00 0.00 0.00 1017.3
20260508194016 15 9 3.2 8.0 0.00 0.00 0.00 65 1018.0
20260508193016 15 3 4.8 4.8 0.00 0.00 0.00 64 1017.9
20260508191606 -17 0.0 0.0 0.00 0.00 0.00 1016.9
20260508190049 -17 0.0 0.0 0.00 0.00 0.00 1016.7
20260508184549 -17 0.0 0.0 0.00 0.00 0.00 1016.6
20260508183100 -17 0.0 0.0 0.00 0.00 0.00 1016.5
20260508181551 -17 0.0 0.0 0.00 0.00 0.00 1016.3
20260508180009 -17 0.0 0.0 0.00 0.00 0.00 1016.3
20260508174519 -17 0.0 0.0 0.00 0.00 0.00 1016.1
20260508173008 -17 0.0 0.0 0.00 0.00 0.00 1016.0
20260508171524 -17 0.0 0.0 0.00 0.00 0.00 1015.9
20260508170023 -17 0.0 0.0 0.00 0.00 0.00 1015.8
20260508164551 -17 0.0 0.0 0.00 0.00 0.00 1015.7
20260508163014 -17 0.0 0.0 0.00 0.00 0.00 1015.8
20260508161509 -17 0.0 0.0 0.00 0.00 0.00 1015.7
20260508160049 -17 0.0 0.0 0.00 0.00 0.00 1015.8
20260508154504 19 37 9.7 9.7 0.00 0.00 0.00 1015.8
20260508153017 -17 0.0 0.0 0.00 0.00 0.00 1015.8
20260508151537 -17 0.0 0.0 0.00 0.00 0.00 1015.8
20260508150008 -17 0.0 0.0 0.00 0.00 0.00 1016.0
20260508144528 -17 0.0 0.0 0.00 0.00 0.00 1016.2
20260508143117 -17 0.0 0.0 0.00 0.00 0.00 1016.3
20260508141515 -17 0.0 0.0 0.00 0.00 0.00 1016.4
20260508140039 -17 0.0 0.0 0.00 0.00 0.00 1016.6
20260508134604 -17 0.0 0.0 0.00 0.00 0.00 1016.6
20260508133019 -17 0.0 0.0 0.00 0.00 0.00 1016.8
20260508131607 -17 0.0 0.0 0.00 0.00 0.00 1016.9
20260508130047 -17 0.0 0.0 0.00 0.00 0.00 1017.1
20260508124513 -17 0.0 0.0 0.00 0.00 0.00 1017.1
20260508115222 17 340 8.0 14.5 0.00 0.00 0.00 60 1017.1
20260508114540 17 340 8.0 17.7 0.00 0.00 0.00 60 1017.3
20260508114213 17 5 8.0 16.1 0.00 0.00 0.00 61 1017.2
20260508113225 17 345 8.0 17.7 0.00 0.00 0.00 59 1017.3
20260508113107 17 35 8.0 22.5 0.00 0.00 0.00 59 1017.5
20260508112211 17 29 8.0 17.7 0.00 0.00 0.00 60 1017.3
20260508111605 17 5 6.4 19.3 0.00 0.00 0.00 60 1017.6
20260508111230 17 17 8.0 16.1 0.00 0.00 0.00 61 1017.5
20260508110214 17 33 8.0 14.5 0.00 0.00 0.00 61 1017.5
20260508110104 16 20 6.4 16.1 0.00 0.00 0.00 61 1017.8
20260508105216 16 355 8.0 14.5 0.00 0.00 0.00 60 1017.5
20260508104534 16 5 9.7 19.3 0.00 0.03 0.00 61 1017.9
20260508103009 -17 0.0 0.0 0.00 0.03 0.00 1018.0
20260508101554 -17 0.0 0.0 0.00 0.03 0.00 1018.1
20260508100056 -17 0.0 0.0 0.00 0.03 0.00 1018.1
20260508094515 -17 0.0 0.0 0.00 0.05 0.00 1018.3
20260508093017 -17 0.0 0.0 0.00 0.05 0.00 1018.5
20260508091557 -17 0.0 0.0 0.00 0.05 0.00 1018.5
20260508090007 -17 0.0 0.0 0.00 0.05 0.00 1018.5
20260508084506 -17 0.0 0.0 0.00 0.05 0.00 1018.5
20260508081519 -17 0.0 0.0 0.00 0.05 0.00 1018.6
20260508080015 -17 0.0 0.0 0.00 0.05 0.00 1018.5
20260508060033 -17 0.0 0.0 0.00 0.05 0.00 1018.2
20260508054642 -17 0.0 0.0 0.00 0.05 0.00 1018.2
20260508053031 -17 0.0 0.0 0.00 0.05 0.00 1018.1
20260508051534 -17 0.0 0.0 0.00 0.05 0.00 1018.1
20260508050025 -17 0.0 0.0 0.00 0.05 0.00 1017.9